#datetime,building,power
2023-08-07T00:00:00,sdl,10.37
2023-08-07T00:01:00,sdl,10.28
2023-08-07T00:02:00,sdl,10.24
2023-08-07T00:03:00,sdl,10.57
2023-08-07T00:04:00,sdl,10.58
2023-08-07T00:05:00,sdl,10.51
2023-08-07T00:06:00,sdl,10.67
2023-08-07T00:07:00,sdl,10.82
2023-08-07T00:08:00,sdl,10.81
2023-08-07T00:09:00,sdl,13.06
2023-08-07T00:10:00,sdl,12.81
2023-08-07T00:11:00,sdl,12.89
2023-08-07T00:12:00,sdl,12.85
2023-08-07T00:13:00,sdl,12.78
2023-08-07T00:14:00,sdl,12.79
2023-08-07T00:15:00,sdl,13.05
2023-08-07T00:16:00,sdl,13.42
2023-08-07T00:17:00,sdl,13.13
2023-08-07T00:18:00,sdl,13.03
2023-08-07T00:19:00,sdl,13.03
2023-08-07T00:20:00,sdl,13.27
2023-08-07T00:21:00,sdl,11.06
2023-08-07T00:22:00,sdl,11.76
2023-08-07T00:23:00,sdl,11.30
2023-08-07T00:24:00,sdl,10.97
2023-08-07T00:25:00,sdl,11.03
2023-08-07T00:26:00,sdl,11.42
2023-08-07T00:27:00,sdl,11.37
2023-08-07T00:28:00,sdl,11.44
2023-08-07T00:29:00,sdl,11.00
2023-08-07T00:30:00,sdl,11.08
2023-08-07T00:31:00,sdl,11.03
2023-08-07T00:32:00,sdl,11.03
2023-08-07T00:33:00,sdl,10.90
2023-08-07T00:34:00,sdl,10.78
2023-08-07T00:35:00,sdl,10.66
2023-08-07T00:36:00,sdl,10.57
2023-08-07T00:37:00,sdl,10.51
2023-08-07T00:38:00,sdl,10.46
2023-08-07T00:39:00,sdl,13.38
2023-08-07T00:40:00,sdl,13.34
2023-08-07T00:41:00,sdl,12.71
2023-08-07T00:42:00,sdl,12.62
2023-08-07T00:43:00,sdl,12.85
2023-08-07T00:44:00,sdl,12.63
2023-08-07T00:45:00,sdl,12.60
2023-08-07T00:46:00,sdl,12.69
2023-08-07T00:47:00,sdl,12.80
2023-08-07T00:48:00,sdl,12.80
2023-08-07T00:49:00,sdl,12.63
2023-08-07T00:50:00,sdl,12.60
2023-08-07T00:51:00,sdl,12.54
2023-08-07T00:52:00,sdl,12.61
2023-08-07T00:53:00,sdl,12.54
2023-08-07T00:54:00,sdl,12.78
2023-08-07T00:55:00,sdl,12.72
2023-08-07T00:56:00,sdl,12.57
2023-08-07T00:57:00,sdl,10.34
2023-08-07T00:58:00,sdl,10.28
2023-08-07T00:59:00,sdl,10.58
2023-08-07T01:00:00,sdl,10.53
2023-08-07T01:01:00,sdl,11.28
2023-08-07T01:02:00,sdl,10.14
2023-08-07T01:03:00,sdl,10.22
2023-08-07T01:04:00,sdl,10.23
2023-08-07T01:05:00,sdl,10.23
2023-08-07T01:06:00,sdl,10.42
2023-08-07T01:07:00,sdl,10.42
2023-08-07T01:08:00,sdl,10.34
2023-08-07T01:09:00,sdl,10.45
2023-08-07T01:10:00,sdl,10.51
2023-08-07T01:11:00,sdl,10.53
2023-08-07T01:12:00,sdl,11.24
2023-08-07T01:13:00,sdl,11.18
2023-08-07T01:14:00,sdl,13.50
2023-08-07T01:15:00,sdl,13.51
2023-08-07T01:16:00,sdl,13.62
2023-08-07T01:17:00,sdl,13.93
2023-08-07T01:18:00,sdl,13.72
2023-08-07T01:19:00,sdl,13.76
2023-08-07T01:20:00,sdl,12.92
2023-08-07T01:21:00,sdl,13.39
2023-08-07T01:22:00,sdl,13.00
2023-08-07T01:23:00,sdl,13.18
2023-08-07T01:24:00,sdl,13.30
2023-08-07T01:25:00,sdl,11.09
2023-08-07T01:26:00,sdl,10.97
2023-08-07T01:27:00,sdl,11.01
2023-08-07T01:28:00,sdl,10.95
2023-08-07T01:29:00,sdl,11.21
2023-08-07T01:30:00,sdl,11.05
2023-08-07T01:31:00,sdl,11.12
2023-08-07T01:32:00,sdl,11.04
2023-08-07T01:33:00,sdl,11.11
2023-08-07T01:34:00,sdl,11.40
2023-08-07T01:35:00,sdl,11.09
2023-08-07T01:36:00,sdl,11.04
2023-08-07T01:37:00,sdl,11.03
2023-08-07T01:38:00,sdl,11.08
2023-08-07T01:39:00,sdl,11.09
2023-08-07T01:40:00,sdl,11.94
2023-08-07T01:41:00,sdl,11.02
2023-08-07T01:42:00,sdl,10.70
2023-08-07T01:43:00,sdl,12.76
2023-08-07T01:44:00,sdl,12.66
2023-08-07T01:45:00,sdl,12.72
2023-08-07T01:46:00,sdl,12.68
2023-08-07T01:47:00,sdl,12.59
2023-08-07T01:48:00,sdl,12.66
2023-08-07T01:49:00,sdl,12.74
2023-08-07T01:50:00,sdl,12.75
2023-08-07T01:51:00,sdl,12.72
2023-08-07T01:52:00,sdl,12.95
2023-08-07T01:53:00,sdl,12.74
2023-08-07T01:54:00,sdl,12.67
2023-08-07T01:55:00,sdl,12.53
2023-08-07T01:56:00,sdl,12.56
2023-08-07T01:57:00,sdl,12.51
2023-08-07T01:58:00,sdl,12.47
2023-08-07T01:59:00,sdl,12.49
2023-08-07T02:00:00,sdl,12.48
2023-08-07T02:01:00,sdl,13.96
2023-08-07T02:02:00,sdl,12.13
2023-08-07T02:03:00,sdl,12.23
2023-08-07T02:04:00,sdl,12.09
2023-08-07T02:05:00,sdl,12.11
2023-08-07T02:06:00,sdl,17.18
2023-08-07T02:07:00,sdl,17.73
2023-08-07T02:08:00,sdl,18.16
2023-08-07T02:09:00,sdl,17.66
2023-08-07T02:10:00,sdl,19.11
2023-08-07T02:11:00,sdl,18.14
2023-08-07T02:12:00,sdl,18.54
2023-08-07T02:13:00,sdl,18.77
2023-08-07T02:14:00,sdl,18.88
2023-08-07T02:15:00,sdl,18.91
2023-08-07T02:16:00,sdl,18.77
2023-08-07T02:17:00,sdl,18.86
2023-08-07T02:18:00,sdl,18.84
2023-08-07T02:19:00,sdl,18.73
2023-08-07T02:20:00,sdl,18.76
2023-08-07T02:21:00,sdl,18.76
2023-08-07T02:22:00,sdl,18.86
2023-08-07T02:23:00,sdl,18.81
2023-08-07T02:24:00,sdl,18.91
2023-08-07T02:25:00,sdl,21.25
2023-08-07T02:26:00,sdl,21.46
2023-08-07T02:27:00,sdl,21.23
2023-08-07T02:28:00,sdl,21.25
2023-08-07T02:29:00,sdl,21.35
2023-08-07T02:30:00,sdl,21.48
2023-08-07T02:31:00,sdl,21.36
2023-08-07T02:32:00,sdl,21.28
2023-08-07T02:33:00,sdl,21.24
2023-08-07T02:34:00,sdl,21.28
2023-08-07T02:35:00,sdl,21.30
2023-08-07T02:36:00,sdl,21.16
2023-08-07T02:37:00,sdl,21.19
2023-08-07T02:38:00,sdl,20.84
2023-08-07T02:39:00,sdl,18.45
2023-08-07T02:40:00,sdl,18.30
2023-08-07T02:41:00,sdl,18.22
2023-08-07T02:42:00,sdl,18.20
2023-08-07T02:43:00,sdl,18.56
2023-08-07T02:44:00,sdl,18.46
2023-08-07T02:45:00,sdl,18.31
2023-08-07T02:46:00,sdl,18.10
2023-08-07T02:47:00,sdl,18.00
2023-08-07T02:48:00,sdl,17.95
2023-08-07T02:49:00,sdl,18.20
2023-08-07T02:50:00,sdl,18.19
2023-08-07T02:51:00,sdl,18.22
2023-08-07T02:52:00,sdl,18.19
2023-08-07T02:53:00,sdl,18.13
2023-08-07T02:54:00,sdl,20.43
2023-08-07T02:55:00,sdl,20.36
2023-08-07T02:56:00,sdl,20.31
2023-08-07T02:57:00,sdl,20.26
2023-08-07T02:58:00,sdl,20.20
2023-08-07T02:59:00,sdl,20.35
2023-08-07T03:00:00,sdl,20.29
2023-08-07T03:01:00,sdl,20.56
2023-08-07T03:02:00,sdl,20.30
2023-08-07T03:03:00,sdl,20.48
2023-08-07T03:04:00,sdl,20.60
2023-08-07T03:05:00,sdl,20.56
2023-08-07T03:06:00,sdl,20.67
2023-08-07T03:07:00,sdl,18.43
2023-08-07T03:08:00,sdl,18.60
2023-08-07T03:09:00,sdl,18.52
2023-08-07T03:10:00,sdl,18.47
2023-08-07T03:11:00,sdl,18.39
2023-08-07T03:12:00,sdl,18.75
2023-08-07T03:13:00,sdl,18.53
2023-08-07T03:14:00,sdl,18.41
2023-08-07T03:15:00,sdl,18.35
2023-08-07T03:16:00,sdl,18.03
2023-08-07T03:17:00,sdl,18.39
2023-08-07T03:18:00,sdl,17.87
2023-08-07T03:19:00,sdl,17.88
2023-08-07T03:20:00,sdl,17.74
2023-08-07T03:21:00,sdl,17.72
2023-08-07T03:22:00,sdl,17.86
2023-08-07T03:23:00,sdl,18.00
2023-08-07T03:24:00,sdl,17.98
2023-08-07T03:25:00,sdl,17.77
2023-08-07T03:26:00,sdl,18.39
2023-08-07T03:27:00,sdl,17.89
2023-08-07T03:28:00,sdl,17.99
2023-08-07T03:29:00,sdl,20.27
2023-08-07T03:30:00,sdl,20.32
2023-08-07T03:31:00,sdl,20.21
2023-08-07T03:32:00,sdl,20.16
2023-08-07T03:33:00,sdl,20.14
2023-08-07T03:34:00,sdl,20.15
2023-08-07T03:35:00,sdl,20.38
2023-08-07T03:36:00,sdl,20.26
2023-08-07T03:37:00,sdl,20.30
2023-08-07T03:38:00,sdl,20.29
2023-08-07T03:39:00,sdl,20.27
2023-08-07T03:40:00,sdl,20.23
2023-08-07T03:41:00,sdl,20.28
2023-08-07T03:42:00,sdl,20.30
2023-08-07T03:43:00,sdl,20.58
2023-08-07T03:44:00,sdl,20.36
2023-08-07T03:45:00,sdl,20.37
2023-08-07T03:46:00,sdl,20.90
2023-08-07T03:47:00,sdl,18.47
2023-08-07T03:48:00,sdl,18.48
2023-08-07T03:49:00,sdl,18.22
2023-08-07T03:50:00,sdl,18.24
2023-08-07T03:51:00,sdl,18.26
2023-08-07T03:52:00,sdl,18.49
2023-08-07T03:53:00,sdl,18.30
2023-08-07T03:54:00,sdl,18.35
2023-08-07T03:55:00,sdl,18.41
2023-08-07T03:56:00,sdl,18.40
2023-08-07T03:57:00,sdl,18.37
2023-08-07T03:58:00,sdl,18.61
2023-08-07T03:59:00,sdl,18.52
2023-08-07T04:00:00,sdl,18.46
2023-08-07T04:01:00,sdl,18.43
2023-08-07T04:02:00,sdl,18.53
2023-08-07T04:03:00,sdl,18.55
2023-08-07T04:04:00,sdl,20.56
2023-08-07T04:05:00,sdl,20.64
2023-08-07T04:06:00,sdl,20.75
2023-08-07T04:07:00,sdl,20.72
2023-08-07T04:08:00,sdl,20.68
2023-08-07T04:09:00,sdl,21.33
2023-08-07T04:10:00,sdl,20.52
2023-08-07T04:11:00,sdl,20.58
2023-08-07T04:12:00,sdl,20.61
2023-08-07T04:13:00,sdl,20.57
2023-08-07T04:14:00,sdl,20.58
2023-08-07T04:15:00,sdl,18.40
2023-08-07T04:16:00,sdl,18.24
2023-08-07T04:17:00,sdl,18.39
2023-08-07T04:18:00,sdl,18.39
2023-08-07T04:19:00,sdl,18.32
2023-08-07T04:20:00,sdl,18.37
2023-08-07T04:21:00,sdl,18.61
2023-08-07T04:22:00,sdl,18.38
2023-08-07T04:23:00,sdl,18.38
2023-08-07T04:24:00,sdl,18.38
2023-08-07T04:25:00,sdl,18.42
2023-08-07T04:26:00,sdl,18.26
2023-08-07T04:27:00,sdl,18.31
2023-08-07T04:28:00,sdl,19.23
2023-08-07T04:29:00,sdl,18.04
2023-08-07T04:30:00,sdl,20.02
2023-08-07T04:31:00,sdl,20.11
2023-08-07T04:32:00,sdl,20.02
2023-08-07T04:33:00,sdl,20.29
2023-08-07T04:34:00,sdl,20.48
2023-08-07T04:35:00,sdl,20.19
2023-08-07T04:36:00,sdl,20.17
2023-08-07T04:37:00,sdl,20.12
2023-08-07T04:38:00,sdl,20.21
2023-08-07T04:39:00,sdl,20.25
2023-08-07T04:40:00,sdl,20.46
2023-08-07T04:41:00,sdl,20.33
2023-08-07T04:42:00,sdl,20.24
2023-08-07T04:43:00,sdl,20.17
2023-08-07T04:44:00,sdl,20.37
2023-08-07T04:45:00,sdl,20.21
2023-08-07T04:46:00,sdl,20.11
2023-08-07T04:47:00,sdl,20.27
2023-08-07T04:48:00,sdl,20.03
2023-08-07T04:49:00,sdl,17.92
2023-08-07T04:50:00,sdl,17.84
2023-08-07T04:51:00,sdl,17.82
2023-08-07T04:52:00,sdl,18.18
2023-08-07T04:53:00,sdl,18.07
2023-08-07T04:54:00,sdl,18.43
2023-08-07T04:55:00,sdl,18.14
2023-08-07T04:56:00,sdl,18.26
2023-08-07T04:57:00,sdl,18.11
2023-08-07T04:58:00,sdl,18.31
2023-08-07T04:59:00,sdl,18.36
2023-08-07T05:00:00,sdl,18.43
2023-08-07T05:01:00,sdl,18.06
2023-08-07T05:02:00,sdl,18.05
2023-08-07T05:03:00,sdl,17.84
2023-08-07T05:04:00,sdl,17.90
2023-08-07T05:05:00,sdl,17.88
2023-08-07T05:06:00,sdl,17.82
2023-08-07T05:07:00,sdl,17.78
2023-08-07T05:08:00,sdl,18.04
2023-08-07T05:09:00,sdl,17.93
2023-08-07T05:10:00,sdl,20.09
2023-08-07T05:11:00,sdl,20.05
2023-08-07T05:12:00,sdl,20.05
2023-08-07T05:13:00,sdl,20.13
2023-08-07T05:14:00,sdl,20.02
2023-08-07T05:15:00,sdl,20.11
2023-08-07T05:16:00,sdl,20.26
2023-08-07T05:17:00,sdl,20.24
2023-08-07T05:18:00,sdl,20.20
2023-08-07T05:19:00,sdl,20.15
2023-08-07T05:20:00,sdl,20.28
2023-08-07T05:21:00,sdl,17.86
2023-08-07T05:22:00,sdl,17.89
2023-08-07T05:23:00,sdl,17.91
2023-08-07T05:24:00,sdl,17.97
2023-08-07T05:25:00,sdl,17.93
2023-08-07T05:26:00,sdl,17.97
2023-08-07T05:27:00,sdl,18.13
2023-08-07T05:28:00,sdl,18.00
2023-08-07T05:29:00,sdl,17.95
2023-08-07T05:30:00,sdl,17.97
2023-08-07T05:31:00,sdl,18.25
2023-08-07T05:32:00,sdl,18.32
2023-08-07T05:33:00,sdl,18.35
2023-08-07T05:34:00,sdl,17.98
2023-08-07T05:35:00,sdl,17.90
2023-08-07T05:36:00,sdl,20.01
2023-08-07T05:37:00,sdl,20.12
2023-08-07T05:38:00,sdl,19.92
2023-08-07T05:39:00,sdl,19.98
2023-08-07T05:40:00,sdl,20.01
2023-08-07T05:41:00,sdl,20.02
2023-08-07T05:42:00,sdl,20.28
2023-08-07T05:43:00,sdl,20.30
2023-08-07T05:44:00,sdl,20.09
2023-08-07T05:45:00,sdl,20.15
2023-08-07T05:46:00,sdl,20.69
2023-08-07T05:47:00,sdl,20.11
2023-08-07T05:48:00,sdl,20.02
2023-08-07T05:49:00,sdl,20.12
2023-08-07T05:50:00,sdl,20.10
2023-08-07T05:51:00,sdl,20.08
2023-08-07T05:52:00,sdl,20.22
2023-08-07T05:53:00,sdl,20.32
2023-08-07T05:54:00,sdl,18.42
2023-08-07T05:55:00,sdl,18.15
2023-08-07T05:56:00,sdl,18.14
2023-08-07T05:57:00,sdl,18.19
2023-08-07T05:58:00,sdl,18.23
2023-08-07T05:59:00,sdl,18.10
2023-08-07T06:00:00,sdl,18.04
2023-08-07T06:01:00,sdl,18.32
2023-08-07T06:02:00,sdl,18.21
2023-08-07T06:03:00,sdl,18.11
2023-08-07T06:04:00,sdl,18.14
2023-08-07T06:05:00,sdl,18.31
2023-08-07T06:06:00,sdl,18.20
2023-08-07T06:07:00,sdl,18.15
2023-08-07T06:08:00,sdl,18.03
2023-08-07T06:09:00,sdl,18.23
2023-08-07T06:10:00,sdl,18.40
2023-08-07T06:11:00,sdl,18.35
2023-08-07T06:12:00,sdl,18.00
2023-08-07T06:13:00,sdl,18.55
2023-08-07T06:14:00,sdl,18.52
2023-08-07T06:15:00,sdl,18.72
2023-08-07T06:16:00,sdl,18.77
2023-08-07T06:17:00,sdl,19.04
2023-08-07T06:18:00,sdl,18.77
2023-08-07T06:19:00,sdl,18.74
2023-08-07T06:20:00,sdl,18.54
2023-08-07T06:21:00,sdl,20.62
2023-08-07T06:22:00,sdl,19.81
2023-08-07T06:23:00,sdl,19.82
2023-08-07T06:24:00,sdl,19.77
2023-08-07T06:25:00,sdl,19.91
2023-08-07T06:26:00,sdl,19.88
2023-08-07T06:27:00,sdl,19.82
2023-08-07T06:28:00,sdl,19.96
2023-08-07T06:29:00,sdl,19.87
2023-08-07T06:30:00,sdl,19.89
2023-08-07T06:31:00,sdl,19.80
2023-08-07T06:32:00,sdl,19.85
2023-08-07T06:33:00,sdl,19.88
2023-08-07T06:34:00,sdl,20.12
2023-08-07T06:35:00,sdl,20.08
2023-08-07T06:36:00,sdl,19.74
2023-08-07T06:37:00,sdl,20.29
2023-08-07T06:38:00,sdl,17.70
2023-08-07T06:39:00,sdl,18.02
2023-08-07T06:40:00,sdl,18.20
2023-08-07T06:41:00,sdl,17.72
2023-08-07T06:42:00,sdl,17.71
2023-08-07T06:43:00,sdl,17.74
2023-08-07T06:44:00,sdl,17.68
2023-08-07T06:45:00,sdl,17.56
2023-08-07T06:46:00,sdl,18.34
2023-08-07T06:47:00,sdl,17.62
2023-08-07T06:48:00,sdl,17.54
2023-08-07T06:49:00,sdl,17.52
2023-08-07T06:50:00,sdl,17.62
2023-08-07T06:51:00,sdl,17.89
2023-08-07T06:52:00,sdl,17.65
2023-08-07T06:53:00,sdl,19.68
2023-08-07T06:54:00,sdl,19.84
2023-08-07T06:55:00,sdl,19.96
2023-08-07T06:56:00,sdl,19.98
2023-08-07T06:57:00,sdl,19.82
2023-08-07T06:58:00,sdl,19.79
2023-08-07T06:59:00,sdl,20.13
2023-08-07T07:00:00,sdl,20.54
2023-08-07T07:01:00,sdl,19.90
2023-08-07T07:02:00,sdl,19.85
2023-08-07T07:03:00,sdl,19.78
2023-08-07T07:04:00,sdl,19.81
2023-08-07T07:05:00,sdl,19.90
2023-08-07T07:06:00,sdl,17.84
2023-08-07T07:07:00,sdl,17.93
2023-08-07T07:08:00,sdl,17.86
2023-08-07T07:09:00,sdl,18.59
2023-08-07T07:10:00,sdl,18.12
2023-08-07T07:11:00,sdl,17.92
2023-08-07T07:12:00,sdl,17.91
2023-08-07T07:13:00,sdl,17.86
2023-08-07T07:14:00,sdl,18.03
2023-08-07T07:15:00,sdl,18.16
2023-08-07T07:16:00,sdl,17.88
2023-08-07T07:17:00,sdl,17.97
2023-08-07T07:18:00,sdl,17.89
2023-08-07T07:19:00,sdl,17.84
2023-08-07T07:20:00,sdl,18.12
2023-08-07T07:21:00,sdl,17.65
2023-08-07T07:22:00,sdl,17.57
2023-08-07T07:23:00,sdl,17.57
2023-08-07T07:24:00,sdl,17.62
2023-08-07T07:25:00,sdl,17.64
2023-08-07T07:26:00,sdl,19.64
2023-08-07T07:27:00,sdl,19.71
2023-08-07T07:28:00,sdl,19.17
2023-08-07T07:29:00,sdl,19.81
2023-08-07T07:30:00,sdl,19.06
2023-08-07T07:31:00,sdl,19.13
2023-08-07T07:32:00,sdl,19.02
2023-08-07T07:33:00,sdl,19.08
2023-08-07T07:34:00,sdl,19.13
2023-08-07T07:35:00,sdl,17.96
2023-08-07T07:36:00,sdl,19.06
2023-08-07T07:37:00,sdl,19.19
2023-08-07T07:38:00,sdl,18.96
2023-08-07T07:39:00,sdl,19.23
2023-08-07T07:40:00,sdl,19.03
2023-08-07T07:41:00,sdl,19.00
2023-08-07T07:42:00,sdl,19.53
2023-08-07T07:43:00,sdl,21.31
2023-08-07T07:44:00,sdl,23.21
2023-08-07T07:45:00,sdl,22.05
2023-08-07T07:46:00,sdl,22.11
2023-08-07T07:47:00,sdl,21.85
2023-08-07T07:48:00,sdl,21.93
2023-08-07T07:49:00,sdl,21.17
2023-08-07T07:50:00,sdl,21.73
2023-08-07T07:51:00,sdl,20.68
2023-08-07T07:52:00,sdl,20.90
2023-08-07T07:53:00,sdl,20.91
2023-08-07T07:54:00,sdl,21.10
2023-08-07T07:55:00,sdl,21.24
2023-08-07T07:56:00,sdl,21.27
2023-08-07T07:57:00,sdl,21.13
2023-08-07T07:58:00,sdl,21.09
2023-08-07T07:59:00,sdl,21.34
2023-08-07T08:00:00,sdl,23.03
2023-08-07T08:01:00,sdl,22.89
2023-08-07T08:02:00,sdl,23.00
2023-08-07T08:03:00,sdl,23.04
2023-08-07T08:04:00,sdl,23.01
2023-08-07T08:05:00,sdl,23.02
2023-08-07T08:06:00,sdl,22.95
2023-08-07T08:07:00,sdl,23.07
2023-08-07T08:08:00,sdl,22.98
2023-08-07T08:09:00,sdl,23.06
2023-08-07T08:10:00,sdl,22.77
2023-08-07T08:11:00,sdl,22.59
2023-08-07T08:12:00,sdl,20.94
2023-08-07T08:13:00,sdl,20.87
2023-08-07T08:14:00,sdl,20.98
2023-08-07T08:15:00,sdl,20.44
2023-08-07T08:16:00,sdl,21.00
2023-08-07T08:17:00,sdl,21.08
2023-08-07T08:18:00,sdl,21.02
2023-08-07T08:19:00,sdl,22.44
2023-08-07T08:20:00,sdl,22.49
2023-08-07T08:21:00,sdl,23.17
2023-08-07T08:22:00,sdl,22.34
2023-08-07T08:23:00,sdl,22.42
2023-08-07T08:24:00,sdl,22.40
2023-08-07T08:25:00,sdl,22.55
2023-08-07T08:26:00,sdl,22.68
2023-08-07T08:27:00,sdl,24.35
2023-08-07T08:28:00,sdl,24.71
2023-08-07T08:29:00,sdl,24.72
2023-08-07T08:30:00,sdl,24.96
2023-08-07T08:31:00,sdl,24.59
2023-08-07T08:32:00,sdl,26.64
2023-08-07T08:33:00,sdl,26.67
2023-08-07T08:34:00,sdl,26.77
2023-08-07T08:35:00,sdl,26.87
2023-08-07T08:36:00,sdl,26.94
2023-08-07T08:37:00,sdl,27.03
2023-08-07T08:38:00,sdl,27.10
2023-08-07T08:39:00,sdl,27.07
2023-08-07T08:40:00,sdl,27.10
2023-08-07T08:41:00,sdl,27.03
2023-08-07T08:42:00,sdl,27.09
2023-08-07T08:43:00,sdl,27.08
2023-08-07T08:44:00,sdl,27.09
2023-08-07T08:45:00,sdl,27.10
2023-08-07T08:46:00,sdl,27.16
2023-08-07T08:47:00,sdl,27.23
2023-08-07T08:48:00,sdl,27.47
2023-08-07T08:49:00,sdl,27.45
2023-08-07T08:50:00,sdl,26.89
2023-08-07T08:51:00,sdl,26.73
2023-08-07T08:52:00,sdl,26.84
2023-08-07T08:53:00,sdl,26.69
2023-08-07T08:54:00,sdl,26.86
2023-08-07T08:55:00,sdl,26.82
2023-08-07T08:56:00,sdl,26.82
2023-08-07T08:57:00,sdl,26.94
2023-08-07T08:58:00,sdl,26.93
2023-08-07T08:59:00,sdl,27.11
2023-08-07T09:00:00,sdl,26.98
2023-08-07T09:01:00,sdl,26.92
2023-08-07T09:02:00,sdl,26.91
2023-08-07T09:03:00,sdl,23.06
2023-08-07T09:04:00,sdl,23.95
2023-08-07T09:05:00,sdl,23.83
2023-08-07T09:06:00,sdl,23.52
2023-08-07T09:07:00,sdl,22.13
2023-08-07T09:08:00,sdl,21.98
2023-08-07T09:09:00,sdl,21.66
2023-08-07T09:10:00,sdl,21.39
2023-08-07T09:11:00,sdl,21.81
2023-08-07T09:12:00,sdl,23.90
2023-08-07T09:13:00,sdl,23.52
2023-08-07T09:14:00,sdl,23.76
2023-08-07T09:15:00,sdl,23.41
2023-08-07T09:16:00,sdl,23.83
2023-08-07T09:17:00,sdl,23.40
2023-08-07T09:18:00,sdl,23.31
2023-08-07T09:19:00,sdl,22.91
2023-08-07T09:20:00,sdl,22.98
2023-08-07T09:21:00,sdl,23.09
2023-08-07T09:22:00,sdl,23.03
2023-08-07T09:23:00,sdl,22.83
2023-08-07T09:24:00,sdl,22.15
2023-08-07T09:25:00,sdl,22.74
2023-08-07T09:26:00,sdl,20.64
2023-08-07T09:27:00,sdl,20.53
2023-08-07T09:28:00,sdl,20.52
2023-08-07T09:29:00,sdl,20.78
2023-08-07T09:30:00,sdl,20.55
2023-08-07T09:31:00,sdl,20.53
2023-08-07T09:32:00,sdl,20.01
2023-08-07T09:33:00,sdl,20.44
2023-08-07T09:34:00,sdl,20.66
2023-08-07T09:35:00,sdl,20.49
2023-08-07T09:36:00,sdl,21.04
2023-08-07T09:37:00,sdl,20.61
2023-08-07T09:38:00,sdl,20.69
2023-08-07T09:39:00,sdl,21.77
2023-08-07T09:40:00,sdl,22.54
2023-08-07T09:41:00,sdl,23.49
2023-08-07T09:42:00,sdl,22.86
2023-08-07T09:43:00,sdl,22.91
2023-08-07T09:44:00,sdl,23.05
2023-08-07T09:45:00,sdl,22.92
2023-08-07T09:46:00,sdl,23.13
2023-08-07T09:47:00,sdl,23.00
2023-08-07T09:48:00,sdl,23.70
2023-08-07T09:49:00,sdl,23.60
2023-08-07T09:50:00,sdl,23.97
2023-08-07T09:51:00,sdl,23.37
2023-08-07T09:52:00,sdl,25.80
2023-08-07T09:53:00,sdl,23.22
2023-08-07T09:54:00,sdl,23.11
2023-08-07T09:55:00,sdl,23.43
2023-08-07T09:56:00,sdl,22.68
2023-08-07T09:57:00,sdl,23.35
2023-08-07T09:58:00,sdl,24.33
2023-08-07T09:59:00,sdl,25.44
2023-08-07T10:00:00,sdl,25.87
2023-08-07T10:01:00,sdl,23.15
2023-08-07T10:02:00,sdl,23.47
2023-08-07T10:03:00,sdl,23.00
2023-08-07T10:04:00,sdl,23.19
2023-08-07T10:05:00,sdl,23.12
2023-08-07T10:06:00,sdl,23.08
2023-08-07T10:07:00,sdl,24.51
2023-08-07T10:08:00,sdl,25.05
2023-08-07T10:09:00,sdl,23.46
2023-08-07T10:10:00,sdl,24.03
2023-08-07T10:11:00,sdl,23.32
2023-08-07T10:12:00,sdl,22.75
2023-08-07T10:13:00,sdl,24.11
2023-08-07T10:14:00,sdl,25.04
2023-08-07T10:15:00,sdl,23.66
2023-08-07T10:16:00,sdl,23.37
2023-08-07T10:17:00,sdl,26.93
2023-08-07T10:18:00,sdl,27.02
2023-08-07T10:19:00,sdl,27.02
2023-08-07T10:20:00,sdl,27.57
2023-08-07T10:21:00,sdl,27.68
2023-08-07T10:22:00,sdl,27.61
2023-08-07T10:23:00,sdl,27.62
2023-08-07T10:24:00,sdl,27.72
2023-08-07T10:25:00,sdl,27.72
2023-08-07T10:26:00,sdl,27.78
2023-08-07T10:27:00,sdl,27.71
2023-08-07T10:28:00,sdl,27.71
2023-08-07T10:29:00,sdl,27.59
2023-08-07T10:30:00,sdl,27.69
2023-08-07T10:31:00,sdl,27.68
2023-08-07T10:32:00,sdl,27.72
2023-08-07T10:33:00,sdl,27.61
2023-08-07T10:34:00,sdl,25.75
2023-08-07T10:35:00,sdl,25.56
2023-08-07T10:36:00,sdl,25.62
2023-08-07T10:37:00,sdl,25.45
2023-08-07T10:38:00,sdl,25.33
2023-08-07T10:39:00,sdl,25.33
2023-08-07T10:40:00,sdl,25.31
2023-08-07T10:41:00,sdl,25.47
2023-08-07T10:42:00,sdl,25.53
2023-08-07T10:43:00,sdl,25.44
2023-08-07T10:44:00,sdl,23.32
2023-08-07T10:45:00,sdl,24.01
2023-08-07T10:46:00,sdl,24.15
2023-08-07T10:47:00,sdl,23.39
2023-08-07T10:48:00,sdl,22.97
2023-08-07T10:49:00,sdl,22.42
2023-08-07T10:50:00,sdl,22.70
2023-08-07T10:51:00,sdl,26.19
2023-08-07T10:52:00,sdl,26.28
2023-08-07T10:53:00,sdl,26.36
2023-08-07T10:54:00,sdl,26.39
2023-08-07T10:55:00,sdl,26.70
2023-08-07T10:56:00,sdl,26.60
2023-08-07T10:57:00,sdl,27.22
2023-08-07T10:58:00,sdl,27.29
2023-08-07T10:59:00,sdl,27.05
2023-08-07T11:00:00,sdl,27.33
2023-08-07T11:01:00,sdl,27.34
2023-08-07T11:02:00,sdl,27.29
2023-08-07T11:03:00,sdl,27.44
2023-08-07T11:04:00,sdl,27.30
2023-08-07T11:05:00,sdl,27.39
2023-08-07T11:06:00,sdl,27.38
2023-08-07T11:07:00,sdl,27.35
2023-08-07T11:08:00,sdl,27.37
2023-08-07T11:09:00,sdl,27.44
2023-08-07T11:10:00,sdl,27.47
2023-08-07T11:11:00,sdl,27.39
2023-08-07T11:12:00,sdl,27.41
2023-08-07T11:13:00,sdl,27.48
2023-08-07T11:14:00,sdl,27.42
2023-08-07T11:15:00,sdl,27.25
2023-08-07T11:16:00,sdl,24.56
2023-08-07T11:17:00,sdl,22.85
2023-08-07T11:18:00,sdl,22.71
2023-08-07T11:19:00,sdl,23.04
2023-08-07T11:20:00,sdl,22.75
2023-08-07T11:21:00,sdl,22.98
2023-08-07T11:22:00,sdl,23.85
2023-08-07T11:23:00,sdl,22.45
2023-08-07T11:24:00,sdl,22.67
2023-08-07T11:25:00,sdl,23.76
2023-08-07T11:26:00,sdl,22.43
2023-08-07T11:27:00,sdl,22.35
2023-08-07T11:28:00,sdl,22.55
2023-08-07T11:29:00,sdl,22.58
2023-08-07T11:30:00,sdl,26.41
2023-08-07T11:31:00,sdl,27.10
2023-08-07T11:32:00,sdl,27.21
2023-08-07T11:33:00,sdl,27.26
2023-08-07T11:34:00,sdl,27.25
2023-08-07T11:35:00,sdl,27.28
2023-08-07T11:36:00,sdl,27.56
2023-08-07T11:37:00,sdl,27.34
2023-08-07T11:38:00,sdl,27.27
2023-08-07T11:39:00,sdl,27.31
2023-08-07T11:40:00,sdl,27.33
2023-08-07T11:41:00,sdl,27.29
2023-08-07T11:42:00,sdl,27.32
2023-08-07T11:43:00,sdl,27.37
2023-08-07T11:44:00,sdl,27.25
2023-08-07T11:45:00,sdl,27.27
2023-08-07T11:46:00,sdl,27.27
2023-08-07T11:47:00,sdl,27.27
2023-08-07T11:48:00,sdl,27.29
2023-08-07T11:49:00,sdl,26.69
2023-08-07T11:50:00,sdl,26.66
2023-08-07T11:51:00,sdl,26.46
2023-08-07T11:52:00,sdl,26.58
2023-08-07T11:53:00,sdl,26.44
2023-08-07T11:54:00,sdl,26.52
2023-08-07T11:55:00,sdl,26.32
2023-08-07T11:56:00,sdl,21.57
2023-08-07T11:57:00,sdl,21.74
2023-08-07T11:58:00,sdl,21.99
2023-08-07T11:59:00,sdl,21.40
2023-08-07T12:00:00,sdl,21.54
2023-08-07T12:01:00,sdl,22.01
2023-08-07T12:02:00,sdl,21.64
2023-08-07T12:03:00,sdl,23.76
2023-08-07T12:04:00,sdl,23.64
2023-08-07T12:05:00,sdl,23.62
2023-08-07T12:06:00,sdl,23.54
2023-08-07T12:07:00,sdl,23.55
2023-08-07T12:08:00,sdl,23.53
2023-08-07T12:09:00,sdl,19.98
2023-08-07T12:10:00,sdl,19.97
2023-08-07T12:11:00,sdl,19.96
2023-08-07T12:12:00,sdl,19.88
2023-08-07T12:13:00,sdl,19.87
2023-08-07T12:14:00,sdl,20.45
2023-08-07T12:15:00,sdl,20.86
2023-08-07T12:16:00,sdl,19.65
2023-08-07T12:17:00,sdl,20.06
2023-08-07T12:18:00,sdl,20.12
2023-08-07T12:19:00,sdl,19.64
2023-08-07T12:20:00,sdl,19.57
2023-08-07T12:21:00,sdl,17.48
2023-08-07T12:22:00,sdl,17.36
2023-08-07T12:23:00,sdl,17.45
2023-08-07T12:24:00,sdl,17.42
2023-08-07T12:25:00,sdl,17.47
2023-08-07T12:26:00,sdl,17.52
2023-08-07T12:27:00,sdl,17.61
2023-08-07T12:28:00,sdl,17.25
2023-08-07T12:29:00,sdl,17.38
2023-08-07T12:30:00,sdl,17.36
2023-08-07T12:31:00,sdl,17.34
2023-08-07T12:32:00,sdl,17.32
2023-08-07T12:33:00,sdl,17.23
2023-08-07T12:34:00,sdl,17.25
2023-08-07T12:35:00,sdl,17.94
2023-08-07T12:36:00,sdl,19.41
2023-08-07T12:37:00,sdl,19.52
2023-08-07T12:38:00,sdl,19.53
2023-08-07T12:39:00,sdl,19.69
2023-08-07T12:40:00,sdl,19.84
2023-08-07T12:41:00,sdl,19.34
2023-08-07T12:42:00,sdl,19.26
2023-08-07T12:43:00,sdl,19.23
2023-08-07T12:44:00,sdl,19.24
2023-08-07T12:45:00,sdl,19.30
2023-08-07T12:46:00,sdl,19.40
2023-08-07T12:47:00,sdl,19.80
2023-08-07T12:48:00,sdl,19.66
2023-08-07T12:49:00,sdl,19.32
2023-08-07T12:50:00,sdl,19.34
2023-08-07T12:51:00,sdl,21.13
2023-08-07T12:52:00,sdl,18.35
2023-08-07T12:53:00,sdl,18.25
2023-08-07T12:54:00,sdl,18.24
2023-08-07T12:55:00,sdl,18.30
2023-08-07T12:56:00,sdl,18.29
2023-08-07T12:57:00,sdl,17.67
2023-08-07T12:58:00,sdl,17.00
2023-08-07T12:59:00,sdl,16.90
2023-08-07T13:00:00,sdl,16.92
2023-08-07T13:01:00,sdl,17.02
2023-08-07T13:02:00,sdl,20.41
2023-08-07T13:03:00,sdl,20.27
2023-08-07T13:04:00,sdl,20.99
2023-08-07T13:05:00,sdl,21.23
2023-08-07T13:06:00,sdl,21.36
2023-08-07T13:07:00,sdl,23.45
2023-08-07T13:08:00,sdl,23.79
2023-08-07T13:09:00,sdl,23.80
2023-08-07T13:10:00,sdl,23.84
2023-08-07T13:11:00,sdl,23.82
2023-08-07T13:12:00,sdl,23.95
2023-08-07T13:13:00,sdl,24.01
2023-08-07T13:14:00,sdl,24.14
2023-08-07T13:15:00,sdl,23.90
2023-08-07T13:16:00,sdl,24.03
2023-08-07T13:17:00,sdl,25.27
2023-08-07T13:18:00,sdl,24.41